Theta_e
317 317 317 317 317 316 316 317 317 317 318 318 318 319 319 319 320 320 320 319 320 319 320 320 320 321 320 321 322 323 320 323 323 323 324 326 345 340 341 344 337 343 349 349 343 340 337 334 330 336 340 342 342 340 346 346 346 345 334 329 324 325 323 331 327 331 334 332 336 340 341 338 335 342 344 349 343 344 345 342 342 344 344 343 345 347 348 348
318 318 318 317 316 316 317 317 317 317 317 318 318 319 319 319 320 320 319 319 319 320 320 320 320 320 321 321 322 323 323 324 322 323 323 335 345 343 338 341 340 340 348 343 341 335 331 329 328 332 338 337 346 339 345 341 345 338 333 328 323 327 328 333 334 335 335 333 340 342 342 339 337 341 343 340 339 342 340 339 341 341 342 343 344 346 346 347
318 318 319 318 317 316 317 317 317 317 318 318 318 319 319 319 319 319 319 319 319 319 320 320 320 321 321 321 322 322 323 323 325 322 328 347 344 341 339 342 341 341 344 340 339 333 329 329 328 330 337 336 340 337 341 340 341 339 333 325 330 331 332 334 336 337 340 339 339 339 341 342 340 340 342 338 337 341 337 335 338 337 337 339 342 344 344 346
318 318 318 318 317 317 317 318 317 317 318 318 318 318 318 319 319 319 319 319 319 319 320 319 320 320 321 321 323 326 325 323 319 325 332 344 341 340 338 340 339 341 344 342 334 330 330 329 329 330 335 333 337 339 336 340 334 340 332 327 331 334 330 332 336 338 339 343 339 339 342 339 339 341 342 340 336 337 340 339 339 337 338 339 340 342 342 343
318 318 318 317 318 317 317 318 318 317 317 318 318 318 318 318 318 318 319 319 319 319 319 319 320 321 321 322 320 325 325 310 320 331 340 340 340 336 341 340 342 339 342 340 332 330 328 326 328 327 333 327 334 334 335 340 339 336 331 333 333 335 329 332 333 336 338 341 340 340 336 335 343 342 340 339 333 333 338 340 342 342 342 340 339 340 341 341
318 318 317 317 317 317 317 317 318 317 317 317 317 318 318 318 318 318 318 318 318 319 319 320 320 321 322 322 324 326 320 303 325 331 342 340 338 341 342 343 348 340 342 337 329 326 322 322 325 323 329 329 330 327 333 337 340 328 333 334 334 333 331 332 330 331 335 338 336 336 337 340 341 337 338 340 338 337 344 343 344 344 342 342 342 341 339 339
317 317 317 317 317 317 317 317 317 317 317 317 317 317 317 318 318 317 318 318 318 318 319 320 321 322 322 321 324 320 319 319 331 332 340 340 339 340 344 346 349 343 340 333 327 322 320 320 322 324 328 328 331 328 333 335 337 332 326 333 333 333 331 331 329 330 333 337 338 340 341 340 337 334 341 339 339 343 343 344 344 344 343 343 340 339 338 339
317 316 317 317 317 317 316 316 316 316 317 317 317 317 317 317 317 317 317 318 318 319 319 320 321 321 321 323 323 324 318 314 324 330 342 338 333 337 342 331 330 339 340 330 326 321 321 319 319 325 325 323 329 327 334 332 334 331 329 333 333 333 332 331 328 329 330 336 342 340 338 339 338 341 339 337 339 342 343 344 344 344 342 342 341 339 339 339
316 316 316 316 316 316 316 316 316 316 316 316 316 316 317 317 316 317 317 318 318 319 319 321 321 322 322 322 318 313 312 327 330 331 332 324 323 331 331 324 328 336 333 329 327 323 321 319 320 323 318 320 327 325 332 328 326 331 332 334 333 331 330 330 328 328 330 337 341 339 337 339 341 340 336 338 340 342 343 343 343 342 341 341 340 339 339 339
317 316 316 316 316 316 316 316 316 316 316 316 316 316 316 316 316 317 317 317 318 319 319 320 321 321 321 322 321 310 325 333 331 333 331 328 324 325 327 326 328 332 325 323 323 322 319 319 319 321 320 321 324 323 329 327 325 332 332 332 330 329 329 330 326 328 331 337 338 337 337 337 341 340 333 338 341 343 342 341 342 341 339 340 340 339 339 339
316 316 316 316 316 316 316 316 316 316 316 316 316 315 315 316 316 316 317 318 318 319 319 320 322 321 320 323 317 312 330 330 333 333 333 328 325 323 326 329 328 326 322 321 321 322 322 322 322 323 322 320 324 322 324 326 329 329 331 329 328 329 330 329 328 326 332 334 338 341 336 338 338 337 333 339 342 342 340 339 339 340 341 339 339 339 340 340
316 316 316 316 316 316 316 316 316 316 316 316 315 315 315 316 316 316 318 319 319 319 320 321 321 323 322 320 318 315 330 331 332 334 335 334 331 330 332 330 327 325 323 320 320 322 323 322 322 320 315 321 319 321 321 328 328 328 328 323 326 329 327 328 326 327 333 332 340 341 335 333 334 331 338 341 342 342 340 338 338 339 340 339 340 339 339 339
316 316 316 316 316 316 316 316 316 316 316 315 315 314 315 315 316 317 319 320 321 319 320 322 323 325 323 316 315 326 332 332 331 331 334 334 330 329 328 329 328 327 324 322 320 322 323 323 323 318 321 319 318 316 325 327 325 326 327 325 325 325 324 327 328 329 333 335 339 337 319 325 331 335 338 340 340 341 339 338 339 340 340 340 340 339 339 340
316 316 316 316 316 316 316 316 316 316 315 314 314 315 314 314 316 318 321 321 321 320 321 322 325 324 322 318 319 325 332 335 330 328 328 331 326 325 325 328 328 327 326 324 322 323 322 324 322 321 323 318 317 328 322 322 323 318 324 327 321 319 318 326 327 328 331 335 339 333 322 325 331 335 339 341 341 339 337 338 339 339 340 339 338 338 338 340
317 316 316 316 316 316 316 316 316 315 315 314 314 314 313 313 317 322 322 320 320 322 322 324 325 325 318 315 323 331 347 334 325 325 328 325 324 320 321 323 323 323 324 323 323 324 324 322 321 317 315 322 322 319 317 318 319 318 317 317 322 318 319 324 329 327 329 332 335 334 325 322 329 334 340 342 341 342 338 338 339 340 340 338 339 338 337 338
316 316 316 316 316 316 316 315 315 315 314 314 313 313 314 315 320 323 321 324 323 323 327 320 323 321 319 316 318 335 327 321 322 327 328 327 324 320 322 320 321 322 322 321 323 323 322 320 316 317 318 319 316 315 315 315 316 317 315 317 316 318 319 320 325 329 330 330 335 331 321 330 327 336 340 342 338 337 338 338 339 340 341 339 339 338 337 337
316 316 316 316 316 316 316 315 314 315 314 313 312 313 316 319 324 323 323 324 323 326 325 324 325 320 310 321 323 316 316 322 326 325 325 327 325 325 321 319 317 319 320 320 320 320 318 316 317 316 317 315 315 315 310 309 311 312 316 316 318 317 318 316 325 328 331 330 326 331 324 328 331 333 336 339 340 342 338 336 338 340 341 342 341 339 337 337
316 316 316 316 316 316 315 314 315 314 313 312 312 313 314 319 321 323 323 326 325 327 326 326 321 315 308 320 313 313 320 324 324 324 323 326 327 325 321 317 318 317 317 315 318 314 316 312 315 310 312 313 314 310 307 305 310 311 313 314 316 318 318 317 317 324 327 329 326 326 324 325 330 332 334 338 339 338 337 338 339 339 341 341 341 340 339 337
317 316 316 316 316 316 315 315 314 313 312 312 312 314 315 316 321 327 327 327 321 315 312 312 311 303 303 312 318 319 321 322 323 324 321 324 327 325 323 322 317 314 311 311 312 313 314 312 314 310 307 309 312 311 309 312 315 314 315 314 316 314 316 315 319 326 326 322 325 325 323 325 328 331 334 336 340 337 338 340 339 338 341 341 341 340 339 339
316 316 316 315 315 315 315 314 313 311 311 313 323 322 322 316 316 316 321 320 314 315 314 313 312 313 314 316 317 321 323 323 319 321 323 326 323 322 321 318 315 313 311 306 310 311 313 306 307 305 308 310 314 315 314 316 317 317 317 315 315 315 315 318 318 321 325 322 322 324 325 326 327 329 331 337 340 338 337 336 337 339 340 339 340 340 340 340
316 316 316 315 314 314 314 314 312 311 310 314 319 321 315 311 307 308 314 316 316 315 313 314 313 312 314 317 318 317 313 313 317 320 321 326 324 319 317 315 311 307 309 310 309 313 312 305 308 309 311 312 313 317 318 318 318 317 316 315 314 315 313 316 316 319 321 319 319 324 326 324 325 328 333 334 336 337 335 337 338 341 338 340 341 341 341 340
316 316 315 314 314 313 313 312 311 310 308 314 320 317 316 314 316 317 313 307 314 315 314 313 314 312 316 317 318 318 315 310 311 317 323 321 319 313 315 313 310 306 310 310 310 308 305 304 308 311 314 318 317 316 316 316 316 317 315 316 314 314 316 318 317 318 320 318 317 320 320 323 326 333 333 333 331 334 337 340 339 341 340 339 339 341 342 341
316 315 315 314 314 312 312 311 310 307 318 319 317 318 315 318 321 322 315 311 308 314 311 311 309 310 312 317 318 318 310 308 306 313 318 318 315 313 314 310 310 310 310 309 306 305 302 306 310 314 314 315 316 316 315 317 318 315 314 313 311 315 312 309 316 317 318 317 316 318 316 319 326 328 329 333 329 329 335 337 336 347 343 340 341 340 341 341
316 315 315 314 313 312 311 309 308 314 317 322 322 317 319 321 321 320 314 306 307 309 310 311 311 310 311 311 316 314 310 309 310 311 320 316 312 314 313 310 310 309 309 308 308 306 305 309 313 313 314 314 315 316 315 315 313 315 314 313 312 313 314 313 313 316 318 319 319 316 314 315 318 322 325 329 329 328 331 334 336 340 342 343 340 344 342 342
315 315 315 314 313 311 309 307 312 322 324 319 316 319 321 322 323 320 311 309 306 307 313 312 313 311 314 319 318 311 311 311 311 315 317 315 314 311 310 313 312 307 309 309 309 308 308 312 313 312 313 315 316 313 313 313 309 311 314 314 314 314 314 315 315 313 312 312 316 314 308 309 316 316 319 323 325 326 329 330 333 337 342 341 340 340 344 344
315 315 315 313 313 311 306 312 318 319 316 316 318 320 322 322 323 322 312 304 299 304 308 302 312 307 318 311 314 313 312 306 312 315 315 315 320 311 310 308 311 307 310 310 308 309 309 313 313 311 313 314 314 313 313 312 308 307 309 314 315 315 315 314 313 312 308 306 313 317 307 305 315 315 319 324 322 326 331 332 333 336 338 340 340 344 342 341
315 314 314 313 312 308 318 314 319 319 314 316 320 322 322 322 328 320 307 300 297 302 302 307 306 308 314 312 313 313 298 303 313 315 313 316 312 315 306 306 309 311 313 313 308 304 310 312 313 314 314 313 311 309 314 312 309 307 314 314 314 315 313 314 314 313 311 315 315 316 313 308 308 315 323 328 327 329 327 328 332 332 338 339 341 340 343 344
315 314 312 311 310 309 322 320 320 317 315 319 322 321 323 325 323 318 305 291 290 306 302 304 307 314 311 312 314 307 307 310 304 309 314 315 315 310 308 307 307 308 312 310 300 308 310 311 312 312 312 311 309 312 316 315 311 312 315 316 313 315 315 315 314 313 312 311 307 310 313 309 307 319 324 325 321 323 327 327 330 336 333 337 342 342 344 343
313 313 312 311 310 308 315 320 320 316 319 321 321 322 322 325 317 309 300 290 301 303 313 303 314 311 309 312 309 309 307 310 304 309 314 314 315 312 305 308 309 309 313 312 305 308 311 314 315 314 311 309 313 315 317 315 311 315 317 317 315 315 315 315 312 311 311 309 305 310 311 305 308 317 319 323 320 322 323 327 330 333 336 336 338 338 341 344
313 312 311 310 311 317 319 322 320 320 321 321 322 323 321 316 310 299 293 287 304 296 304 305 305 304 308 304 305 307 305 307 309 310 311 309 311 313 311 314 310 308 309 312 311 311 312 319 320 314 312 314 316 317 318 317 316 317 316 314 313 312 311 312 311 311 309 303 306 310 312 310 304 313 319 319 320 326 326 329 330 332 335 339 340 337 341 342
311 310 310 309 321 324 321 317 321 323 323 325 323 321 318 312 303 297 288 295 304 301 306 303 303 308 304 302 300 305 305 307 307 308 306 310 308 309 309 307 313 309 309 308 307 309 312 313 312 315 314 314 315 314 318 319 317 315 312 310 310 308 310 309 307 310 302 301 308 311 311 314 303 312 319 323 325 326 327 326 328 331 333 336 338 340 341 341
309 307 308 314 325 325 318 316 323 325 325 325 322 316 312 300 303 292 291 305 294 298 300 300 305 304 303 305 302 302 302 305 307 306 304 305 304 303 305 302 305 301 301 302 302 308 306 308 312 314 318 313 312 311 312 314 315 313 311 310 303 300 302 298 302 298 299 300 308 311 311 308 310 315 318 322 324 326 328 328 329 332 333 336 338 341 342 342
308 307 303 310 318 323 324 326 326 327 327 322 318 315 307 299 289 296 297 299 295 302 300 305 302 303 303 302 301 303 306 301 306 306 307 306 304 304 307 307 307 306 300 303 302 301 303 308 308 309 311 314 313 307 307 307 310 310 308 306 302 299 297 294 298 301 302 306 311 310 312 306 314 317 321 321 324 326 327 330 331 332 334 336 339 341 342 343
307 308 320 323 321 324 325 327 328 327 322 322 316 310 304 294 292 301 298 299 299 304 303 302 303 304 304 300 302 304 300 305 303 305 306 303 304 302 304 306 308 307 305 304 300 300 296 296 302 305 302 314 312 310 309 307 307 308 312 308 305 305 299 295 298 296 298 302 306 310 306 307 306 312 322 322 325 327 328 329 332 333 334 337 338 340 343 342
305 312 323 330 327 327 328 327 328 327 322 318 311 306 296 294 298 295 297 299 301 302 301 304 301 301 300 302 304 305 304 300 305 304 303 302 300 302 302 303 307 307 306 300 303 302 300 299 304 307 308 311 308 310 311 308 307 309 310 311 307 305 309 300 303 302 302 301 301 305 305 312 313 321 324 325 325 326 327 327 330 331 331 335 336 337 339 341
312 325 326 327 321 321 324 326 328 325 320 313 307 300 296 298 296 300 298 303 302 300 301 302 302 299 299 299 303 302 306 302 303 303 302 303 303 303 305 305 305 307 304 300 304 299 301 297 305 306 309 308 308 310 309 310 299 306 307 303 307 313 310 305 307 307 306 303 300 309 308 314 318 320 321 323 322 323 325 326 326 328 331 333 333 335 338 340
326 327 324 318 318 321 326 327 327 323 318 311 305 296 301 301 303 302 303 302 303 303 301 296 297 298 296 296 298 301 302 304 302 302 299 303 300 303 302 303 306 306 307 305 301 307 300 298 305 304 302 308 310 310 310 311 310 307 302 306 313 314 312 307 300 304 301 297 301 306 306 307 309 306 320 318 318 320 322 324 325 327 329 329 331 334 336 338
321 321 318 316 318 321 326 328 325 321 314 307 300 299 305 300 305 304 305 304 304 303 299 297 297 301 297 297 297 300 302 299 300 301 299 301 297 305 302 302 305 305 307 310 303 304 307 297 301 305 305 307 310 309 307 310 312 307 306 311 305 300 301 306 303 297 297 296 300 304 307 307 309 310 314 314 315 317 320 323 324 324 326 327 329 332 335 338
324 319 315 317 321 321 322 329 323 317 311 304 300 298 302 303 306 305 305 305 305 303 299 300 297 300 301 297 299 301 301 297 300 299 298 300 297 303 302 304 303 306 307 308 305 306 306 298 298 305 304 306 307 306 299 303 309 311 311 308 311 308 304 302 304 307 304 297 299 300 305 304 312 312 314 314 317 318 320 321 322 323 325 326 328 329 331 334
318 315 311 319 321 322 325 324 317 313 311 301 302 301 306 303 305 306 307 306 303 303 301 300 301 298 299 299 301 298 300 300 299 299 299 301 300 304 302 306 303 305 305 307 306 308 303 306 297 301 307 305 300 304 302 304 301 304 305 305 306 306 310 308 308 305 302 300 300 299 299 305 312 316 315 315 317 318 320 320 322 323 325 326 328 328 330 332
317 311 311 320 320 323 321 316 310 306 304 305 305 303 304 303 306 306 307 307 306 306 304 304 302 299 300 299 299 302 300 301 301 299 300 300 301 297 303 304 305 304 306 305 305 306 303 303 298 300 301 299 302 307 304 305 306 305 304 303 306 303 302 300 300 307 305 302 298 299 297 308 314 319 317 318 319 319 321 321 321 323 324 326 328 328 329 330
314 308 309 319 320 321 315 308 306 308 306 303 301 304 302 308 305 305 306 307 306 304 307 305 304 303 302 301 301 300 301 299 300 300 301 299 302 303 303 307 305 306 304 303 303 307 306 305 302 298 299 301 303 305 308 308 308 306 307 305 307 307 306 302 296 302 304 305 307 308 303 304 316 318 319 318 319 319 320 321 321 323 324 326 327 327 328 329
311 308 316 320 320 318 312 305 307 307 304 305 308 306 307 306 305 306 305 306 304 305 304 303 303 302 303 303 301 301 302 299 300 299 301 302 302 303 305 306 306 307 306 304 304 305 308 302 300 300 302 303 306 307 307 307 306 305 306 307 305 304 306 305 304 307 303 304 303 303 301 303 315 320 319 319 319 320 321 321 321 322 324 325 326 325 327 327
311 311 313 318 321 318 309 304 302 303 304 306 305 304 306 305 305 304 304 305 304 304 303 303 304 306 302 305 303 301 303 297 301 300 300 302 301 305 306 307 308 305 305 303 303 305 299 304 301 297 297 298 299 302 303 306 305 303 304 306 306 307 306 307 306 307 302 304 304 302 297 303 313 319 319 318 318 318 319 320 321 321 322 324 326 326 326 327
314 313 313 314 319 316 307 308 306 303 304 303 304 302 303 303 305 305 305 304 306 305 304 302 304 304 303 305 303 304 303 302 299 303 303 302 301 305 305 306 307 305 305 306 311 308 303 302 301 295 292 290 289 291 293 296 300 303 304 303 305 304 305 304 301 305 297 305 307 304 302 309 313 316 316 317 317 318 319 320 321 322 323 323 325 326 326 325
310 308 309 310 314 312 310 312 309 307 304 305 302 302 303 301 303 305 306 304 306 305 306 305 305 306 303 303 301 301 301 303 301 300 302 301 302 303 304 305 304 304 309 312 309 307 303 303 303 302 298 296 298 300 303 305 303 300 300 301 302 304 306 305 305 302 299 304 303 308 308 307 309 312 314 315 316 316 316 319 319 320 322 322 324 324 326 325
312 307 308 304 310 309 307 310 307 307 304 305 303 302 300 301 302 304 306 303 304 305 304 305 303 303 302 302 300 301 302 301 304 302 301 302 303 303 305 305 305 306 309 309 306 306 304 299 301 301 301 300 300 299 301 302 301 301 299 300 301 303 305 304 301 300 309 304 298 309 312 308 309 311 312 314 315 316 317 318 319 320 321 321 322 323 325 324
306 308 311 312 305 303 306 304 308 306 305 307 303 304 302 301 302 301 303 305 306 305 304 304 304 304 304 303 302 300 301 302 303 301 303 303 302 302 302 304 304 304 307 305 307 305 303 298 301 300 299 300 300 300 300 300 300 300 300 299 300 302 304 303 304 306 308 303 301 309 312 309 310 312 313 314 316 316 316 317 319 320 321 322 323 322 321 322
312 310 309 312 307 306 306 305 307 306 305 306 304 305 302 301 299 301 303 303 304 303 305 302 301 303 303 304 304 303 303 298 300 304 303 301 302 301 301 301 303 305 305 305 305 307 303 299 301 301 299 299 299 299 300 299 298 299 299 300 300 301 303 305 305 307 307 307 310 311 311 310 311 312 314 315 317 317 317 320 320 320 319 322 322 321 321 321
310 312 307 311 311 308 308 308 307 307 303 305 305 302 304 302 301 303 304 304 301 301 306 302 302 303 303 303 305 303 304 305 303 301 304 304 302 304 303 304 303 304 304 303 303 307 300 299 301 300 298 298 298 299 299 298 298 297 299 300 300 301 303 305 306 307 308 307 311 310 309 307 312 315 315 318 318 317 318 316 318 319 319 319 321 320 321 321
315 317 318 313 305 306 309 308 308 308 305 307 305 303 305 302 302 304 303 306 305 302 304 302 303 303 304 305 305 304 306 306 306 305 305 305 302 305 304 304 305 302 304 302 303 304 301 300 302 300 296 296 299 297 298 298 298 298 298 299 299 299 300 304 304 307 306 305 309 310 308 306 311 314 315 317 317 316 315 316 317 318 318 319 319 320 321 322
323 318 320 316 305 307 307 307 308 307 301 304 306 304 305 302 304 305 303 304 305 306 306 304 304 304 303 304 304 305 307 307 307 308 308 308 308 307 307 306 305 304 304 303 304 301 302 300 299 298 294 295 299 298 297 297 296 294 296 299 300 301 303 305 307 309 309 309 307 306 308 313 313 314 313 313 314 314 314 314 315 316 318 318 318 318 321 322
Wind_Speed
16 15 15 16 16 15 15 15 15 15 14 15 15 15 15 16 16 17 16 16 16 15 14 14 12 11 12 11 11 11 8 10 11 11 11 14 9 6 9 12 15 14 15 13 14 13 12 12 12 11 11 9 8 9 3 7 5 4 2 5 2 1 3 3 7 6 6 10 12 8 9 9 10 8 8 7 7 7 7 8 8 9 10 14 21 21 20 20
16 15 16 16 16 15 15 15 16 16 15 15 15 15 15 15 16 17 17 17 16 16 15 13 13 12 11 11 11 10 10 11 12 14 18 5 10 8 8 12 13 16 15 15 15 15 13 13 12 12 11 8 5 6 2 4 4 5 1 1 2 1 9 7 7 14 6 9 9 11 11 1 7 9 10 7 8 10 10 9 9 12 15 20 21 22 20 19
16 17 16 15 16 15 15 16 17 17 16 15 15 15 15 16 16 17 17 17 17 16 15 14 12 12 11 11 10 8 10 12 12 17 14 15 11 9 8 13 14 17 17 15 14 14 12 11 12 12 11 8 5 6 5 3 5 6 1 2 4 5 7 8 8 8 14 10 10 10 8 8 10 9 5 5 10 10 9 10 13 14 19 20 21 21 20 19
16 17 16 16 15 16 16 16 17 17 17 16 16 16 16 16 16 17 17 17 17 17 15 14 13 12 11 11 9 10 11 12 10 7 11 10 12 10 9 13 16 17 18 14 12 13 10 10 11 13 10 10 7 8 7 4 4 8 1 3 2 3 3 6 7 9 6 10 8 10 10 8 7 7 9 7 10 8 7 9 14 17 19 20 21 22 20 19
16 17 17 16 16 17 16 17 17 18 18 17 17 17 17 17 17 16 17 17 17 16 15 14 14 12 12 10 9 9 8 9 7 9 10 10 10 10 10 15 16 19 18 12 12 12 10 10 11 12 11 8 8 7 8 5 5 4 2 9 5 2 3 3 8 7 8 8 11 10 10 5 10 9 8 2 7 5 7 12 14 16 18 21 22 20 19 19
17 17 17 17 16 16 17 17 17 18 18 19 18 18 18 17 17 17 17 17 17 16 15 14 13 13 11 9 9 9 7 1 6 7 7 10 10 8 10 13 14 17 15 13 12 11 11 11 11 11 9 10 8 8 7 5 5 4 8 15 6 1 1 3 5 4 4 8 9 8 4 8 8 13 9 7 4 7 9 13 16 16 19 19 19 20 20 19
17 18 17 17 17 16 17 17 17 18 19 18 19 19 19 19 17 16 16 16 16 16 15 14 13 12 11 8 11 8 10 8 7 8 11 10 11 10 9 11 13 14 14 13 14 11 12 11 12 10 9 10 8 8 5 8 9 6 6 4 3 2 4 1 5 4 5 6 7 6 12 11 10 13 7 8 8 10 12 15 16 17 18 19 19 19 19 18
18 18 17 17 17 17 17 17 17 18 18 18 19 20 20 20 19 18 17 16 16 16 15 13 13 11 10 10 8 8 11 3 11 12 11 12 12 12 12 13 17 13 13 15 14 13 12 12 12 9 10 9 4 10 4 7 8 8 7 5 1 5 1 4 2 3 3 7 7 12 7 8 7 6 14 4 9 12 14 16 17 18 19 17 18 18 19 17
18 18 17 18 17 18 18 18 18 18 17 18 20 20 20 20 20 19 17 17 16 16 14 14 12 10 8 8 9 9 2 11 11 12 15 14 13 15 15 13 17 12 11 12 14 11 11 11 12 10 7 10 4 9 8 8 9 9 8 2 4 5 3 2 5 4 5 6 7 7 8 9 8 14 8 10 13 12 14 17 18 19 19 18 18 17 17 17
17 18 17 17 18 19 19 18 18 18 18 19 19 20 21 20 20 20 19 17 16 15 13 12 11 10 9 7 8 9 9 8 12 12 12 12 14 16 16 13 15 12 12 13 12 13 13 8 12 9 11 12 5 9 6 10 4 2 5 5 6 5 5 4 6 6 4 8 8 8 12 7 8 8 3 9 13 13 15 18 18 18 18 17 16 16 16 16
17 16 18 18 19 19 19 19 19 18 18 19 19 21 21 21 21 21 19 17 15 14 13 12 8 7 8 9 9 3 1 3 8 8 11 12 14 15 14 12 14 12 12 11 12 12 11 10 9 3 2 8 1 8 10 8 6 5 6 6 8 7 8 4 5 3 6 9 4 7 4 10 11 7 4 10 12 13 16 17 18 17 16 15 17 16 15 14
17 17 17 18 18 19 20 20 18 18 19 19 20 21 22 22 21 20 18 15 13 12 12 10 9 6 9 11 10 1 4 6 7 8 8 11 11 12 12 11 12 12 10 10 11 10 10 8 7 8 3 2 7 4 9 8 5 6 6 9 9 9 9 8 8 7 9 5 11 3 6 12 3 6 5 9 13 14 15 18 18 17 16 16 16 15 14 14
17 17 17 17 18 18 20 20 19 19 19 18 18 20 22 22 20 19 16 13 11 11 10 10 9 7 8 9 6 8 2 8 8 7 8 8 7 6 7 10 11 8 8 7 9 8 8 7 8 11 10 6 6 5 8 7 8 8 8 9 8 9 8 9 5 8 11 7 6 8 3 6 5 3 4 9 11 13 15 16 16 15 15 15 15 14 14 14
18 18 19 18 17 19 20 19 20 19 17 19 16 18 22 20 19 18 14 10 5 8 9 10 8 8 7 7 8 5 4 7 9 8 9 6 8 7 7 9 8 7 4 7 6 6 5 5 9 12 9 8 5 8 9 6 7 10 9 9 8 7 6 10 8 8 14 7 6 6 4 5 4 6 5 10 13 13 15 16 15 15 15 15 15 15 15 15
17 17 18 19 18 21 18 17 15 15 16 17 16 19 21 20 19 16 4 5 6 8 9 7 8 7 8 4 5 7 8 3 11 9 8 9 7 8 8 8 7 5 5 3 4 3 4 7 8 10 9 10 10 5 8 10 9 10 10 11 9 8 6 9 7 9 9 9 8 4 1 7 6 6 9 11 8 8 15 15 16 16 14 16 15 16 15 15
14 15 16 19 19 19 17 15 14 15 18 16 16 19 20 18 15 5 6 5 8 10 9 7 8 9 9 7 7 8 7 11 11 11 8 9 7 7 9 9 8 6 5 6 3 3 4 7 10 7 8 8 10 7 8 9 9 11 12 7 9 7 6 8 10 9 18 8 9 2 4 4 7 9 9 6 11 13 13 16 15 16 17 16 15 15 15 16
14 15 15 16 19 19 19 15 14 15 15 15 19 18 15 14 7 6 5 8 7 8 7 4 5 8 7 7 6 11 10 10 11 11 10 9 8 8 9 9 9 8 9 5 5 4 7 8 7 8 11 9 9 9 9 11 11 11 11 9 9 11 8 6 8 9 17 14 8 6 4 5 3 3 6 10 9 15 15 15 16 14 15 15 15 15 15 16
15 15 16 16 18 19 17 14 14 15 15 16 17 15 12 12 13 6 4 7 5 7 8 7 7 6 10 6 12 12 11 8 9 10 10 8 5 9 8 9 9 10 9 9 6 9 8 8 8 8 8 10 10 12 12 12 11 10 10 11 10 12 10 4 7 9 10 10 15 7 4 5 4 5 10 12 13 10 11 12 14 15 14 15 15 14 16 15
18 18 15 15 16 17 16 15 14 13 16 21 21 15 15 14 8 7 6 6 7 6 7 8 8 7 7 15 9 11 11 9 7 10 11 10 7 8 8 5 10 12 10 10 9 12 9 9 8 10 11 11 12 14 13 10 11 14 14 13 9 10 11 10 5 9 9 9 9 13 8 10 7 10 13 19 21 16 10 7 7 12 12 12 14 15 14 15
20 17 16 15 14 15 16 16 13 12 12 13 5 5 5 5 6 5 9 9 11 11 10 2 13 4 5 8 8 10 10 10 9 12 11 8 9 11 10 9 11 12 10 10 12 13 8 11 11 11 11 13 15 15 15 14 5 8 13 14 11 11 11 12 7 7 8 7 11 12 11 9 16 16 8 12 8 14 12 10 7 7 9 13 13 14 15 16
18 18 16 15 13 13 15 13 12 11 10 9 10 8 6 5 7 3 5 11 11 12 10 7 8 10 6 6 10 9 10 11 10 10 11 10 10 10 10 11 11 11 11 10 10 10 10 12 12 13 14 13 14 11 13 17 7 9 11 13 13 13 10 8 8 7 9 8 8 7 20 17 13 9 16 7 7 10 12 17 14 12 10 6 13 14 15 15
18 17 17 15 14 13 12 13 11 12 11 7 8 8 5 6 6 5 7 6 14 11 10 9 5 8 1 7 1 5 10 10 12 12 11 13 12 13 12 12 12 11 12 12 9 11 11 13 11 13 13 9 10 12 15 6 6 12 9 7 11 11 11 12 4 3 6 11 5 11 10 13 14 15 13 10 8 4 9 7 7 15 7 7 12 13 14 15
18 18 15 15 14 13 12 12 11 10 4 6 8 13 3 4 4 5 7 8 8 8 8 10 10 9 8 6 7 7 12 12 11 14 13 14 12 13 10 12 12 11 13 13 11 11 11 12 15 11 12 9 11 10 9 7 9 10 9 8 10 10 12 10 10 7 8 9 8 10 10 9 16 11 12 13 14 10 7 5 4 6 17 11 10 14 14 16
18 17 15 14 13 13 12 12 13 7 7 10 11 5 5 4 5 5 9 7 4 11 8 9 10 10 9 9 9 13 11 10 10 15 13 13 11 9 9 12 12 13 12 14 13 11 10 9 14 12 11 10 8 10 11 10 9 11 12 11 10 13 14 7 6 10 6 10 9 5 9 10 13 14 11 16 13 14 14 13 10 8 3 8 3 10 11 16
17 17 16 15 12 12 11 12 5 6 6 8 4 2 2 3 4 6 7 6 8 5 3 5 5 8 6 4 9 13 13 6 12 12 13 13 12 8 8 7 9 12 10 14 13 12 12 11 15 13 11 10 10 10 12 11 11 10 14 14 12 11 16 17 4 5 8 10 12 9 4 5 7 11 12 11 10 9 8 7 9 9 5 6 6 5 6 5
17 15 15 12 12 12 9 4 4 1 5 5 5 3 1 4 4 5 7 6 7 8 8 10 7 8 2 12 9 11 5 8 1 12 10 13 8 9 6 9 9 10 12 11 13 8 9 7 5 12 11 12 12 10 11 12 10 10 11 14 12 12 18 15 12 10 9 9 12 12 9 5 6 7 6 5 8 14 9 9 11 8 5 3 6 6 8 10
16 16 14 13 11 8 6 1 6 4 7 5 2 1 2 4 3 7 6 6 7 6 8 9 12 4 6 10 13 7 11 10 6 8 12 8 9 6 10 8 10 9 6 7 7 11 11 13 10 7 11 13 12 10 9 12 10 9 5 19 13 8 6 13 14 10 8 9 8 11 10 6 6 2 8 10 13 11 6 2 2 10 10 7 11 11 9 8
17 16 14 11 8 5 5 8 8 7 3 5 3 2 4 2 3 4 6 7 4 5 7 9 3 4 7 12 14 14 6 18 11 11 10 11 10 9 13 5 10 10 7 10 11 7 13 11 11 13 13 11 12 10 8 13 10 1 4 3 12 11 6 8 8 8 9 10 10 11 14 6 7 6 11 9 6 4 8 5 2 1 6 12 12 13 9 11
16 16 14 11 10 10 8 6 8 7 6 3 3 5 3 2 7 6 5 4 5 3 3 8 2 9 5 11 12 13 3 11 8 14 9 7 12 6 10 7 9 10 4 10 9 9 10 5 9 12 12 11 10 12 8 10 12 8 4 1 5 8 9 11 9 10 12 12 12 9 12 10 7 7 6 6 10 7 4 3 8 5 3 5 7 11 11 9
16 15 13 11 10 6 5 7 8 3 3 2 3 3 4 5 6 6 6 3 4 7 5 6 10 12 11 13 12 10 11 7 4 12 10 10 11 11 9 10 10 10 10 12 17 7 12 13 7 11 11 11 12 8 7 7 14 3 5 7 5 5 10 10 10 9 9 13 11 11 16 8 7 2 6 7 6 3 3 5 3 2 7 8 6 10 10 10
15 13 11 8 5 5 5 8 4 2 2 2 4 7 6 6 7 5 6 8 4 10 5 8 9 13 15 15 11 12 11 9 8 10 11 8 10 12 6 10 5 4 6 10 11 3 1 9 6 7 5 6 7 15 14 10 11 8 6 9 9 8 8 8 10 10 11 11 12 14 17 18 10 10 5 6 6 6 4 6 5 4 2 6 6 8 11 11
14 12 9 6 6 7 7 6 5 3 2 5 6 7 7 6 7 5 3 4 9 6 9 8 9 12 15 13 8 12 8 10 10 11 10 9 9 10 9 8 7 8 9 11 11 10 8 7 9 9 6 9 8 3 9 2 9 11 8 9 9 8 9 9 9 13 12 10 11 16 14 15 6 5 8 8 6 7 7 6 6 6 4 2 6 7 7 7
14 12 8 10 10 7 6 5 4 3 4 5 6 7 8 3 4 2 3 5 5 2 5 3 12 13 14 14 10 12 8 10 10 13 12 12 12 10 12 10 12 10 5 12 10 9 8 7 9 7 5 9 6 11 10 10 11 11 11 10 10 9 10 9 11 8 8 11 11 14 18 7 13 9 6 9 6 6 7 8 6 6 6 3 4 7 7 7
14 10 5 8 10 8 5 4 2 4 6 5 7 6 7 4 0 4 6 3 6 1 5 6 13 14 13 10 10 11 11 7 12 7 7 7 7 7 7 7 6 9 10 11 10 9 11 9 10 11 10 13 10 12 4 4 13 13 12 11 10 9 8 10 10 12 12 10 12 15 17 10 10 7 10 9 9 7 6 7 5 5 7 6 7 11 9 7
16 9 11 8 8 10 9 4 4 4 5 6 7 7 2 1 2 1 2 1 4 5 7 7 10 10 14 11 9 12 9 9 10 9 10 6 10 8 12 9 13 8 4 9 9 9 10 3 13 3 5 16 15 14 8 9 7 12 12 11 12 12 8 9 9 10 10 12 12 12 4 7 8 10 10 8 9 9 7 9 10 7 7 6 7 7 9 9
8 7 8 9 4 3 2 2 4 6 6 7 8 4 2 5 4 3 4 5 4 6 9 11 9 13 7 6 8 7 3 6 11 12 9 10 3 2 6 2 2 3 7 8 5 10 12 8 10 9 9 12 7 3 8 9 8 11 12 13 10 8 10 10 10 12 11 10 12 8 10 11 11 9 10 10 8 8 8 9 8 8 9 9 7 6 6 6
7 7 8 1 5 3 1 3 3 4 6 6 4 1 4 6 5 5 3 8 6 4 12 8 10 8 9 9 9 10 11 6 11 9 7 4 5 4 4 2 5 7 5 6 8 7 6 9 11 9 8 7 4 7 5 12 7 7 13 12 11 4 10 7 9 11 14 12 10 14 14 12 12 9 8 9 8 11 8 9 10 9 9 7 8 8 7 7
9 4 2 3 6 2 1 2 5 6 6 6 4 5 3 4 5 5 3 5 7 5 5 6 4 7 7 8 10 13 11 11 11 11 9 11 5 0 2 1 3 7 5 7 8 4 4 9 8 9 4 8 8 7 10 11 10 10 4 13 10 10 10 7 6 12 15 14 10 14 17 10 9 8 8 9 8 9 8 9 9 9 9 9 8 7 6 6
9 7 6 7 2 4 4 3 7 7 8 2 4 5 5 7 5 8 5 5 4 5 8 5 4 6 5 9 8 10 12 9 10 8 7 5 4 2 2 6 3 3 6 9 7 3 6 4 9 7 8 10 10 11 10 10 14 13 6 9 7 6 10 9 9 5 8 12 13 14 13 8 6 8 9 7 7 7 7 8 9 10 11 9 9 8 8 6
9 9 4 4 4 3 5 7 8 9 6 1 2 4 4 7 6 7 6 8 2 6 5 3 6 5 6 4 7 6 8 6 9 6 3 5 4 4 3 1 5 2 5 6 8 6 6 7 4 8 7 7 9 10 7 11 15 11 7 9 10 8 6 9 10 10 9 10 10 10 10 7 8 6 8 7 7 7 8 8 8 9 10 11 11 11 10 10
4 6 6 3 3 4 7 9 7 1 2 4 5 7 7 7 6 6 5 7 1 1 9 8 1 7 3 5 8 6 5 4 5 5 3 7 1 6 5 4 3 5 2 3 9 6 8 8 5 10 8 9 3 6 4 8 7 3 12 10 4 8 11 10 11 11 12 11 7 12 10 8 8 5 6 7 7 7 7 8 9 10 11 11 12 12 11 10
9 5 7 3 2 8 7 6 3 4 5 5 6 6 5 7 2 5 4 3 6 2 2 3 7 7 5 5 3 4 5 5 4 4 1 4 7 8 5 4 5 4 7 6 4 6 6 6 9 9 5 5 9 4 6 9 7 7 6 6 9 11 12 9 9 11 12 10 1 8 10 6 5 7 6 6 6 6 7 7 9 9 10 11 12 12 12 12
3 5 5 3 2 8 11 3 1 3 3 4 4 5 1 3 6 5 5 6 1 4 2 4 5 3 3 3 4 4 1 4 4 2 4 8 8 8 7 5 5 7 8 3 6 3 5 6 5 5 5 6 6 5 4 5 7 8 9 5 4 7 6 9 10 4 8 11 11 8 6 6 6 7 7 8 8 7 6 7 8 8 9 11 11 12 12 12
3 3 6 5 7 4 9 1 3 4 4 3 2 4 4 6 7 6 6 6 7 4 6 4 4 8 5 2 2 2 2 4 3 3 5 3 5 5 6 5 8 3 8 8 7 7 7 4 7 5 4 5 4 5 7 7 7 8 8 5 4 9 10 9 9 4 9 11 12 8 9 9 9 7 7 8 9 8 8 8 8 8 8 9 10 11 11 12
2 3 2 4 3 5 3 4 2 4 3 4 2 4 4 4 5 7 7 7 5 5 1 4 6 2 3 1 2 0 2 6 5 4 5 6 7 3 7 7 8 6 8 9 11 6 5 2 6 7 9 10 10 11 11 11 10 9 1 1 5 9 7 7 9 5 5 6 9 7 9 12 12 10 10 10 8 8 9 9 10 10 9 9 9 10 10 11
4 2 3 4 1 4 5 3 6 2 4 3 3 3 1 4 5 3 7 6 7 4 7 2 2 2 3 4 3 2 4 1 5 5 4 6 6 4 4 6 7 8 8 10 11 6 3 1 2 3 5 7 7 8 5 7 10 10 8 3 1 5 5 8 9 8 10 8 4 10 18 16 15 13 11 10 9 10 8 8 8 8 10 10 9 9 10 10
3 4 4 3 1 4 4 3 4 3 5 2 2 3 4 4 2 6 7 2 2 5 4 7 2 4 1 3 2 3 1 5 4 8 4 6 5 7 3 3 6 7 9 7 4 6 2 6 4 2 4 5 7 5 4 7 2 4 2 5 2 3 4 8 9 9 6 9 7 9 19 19 16 15 13 10 9 7 7 9 8 8 8 9 9 10 11 12
2 3 1 4 5 3 2 5 5 5 3 3 5 3 4 3 3 4 5 4 2 2 5 3 1 6 4 5 2 1 2 4 3 6 5 4 6 6 7 3 4 2 8 0 2 5 5 6 5 6 2 1 3 7 7 4 4 2 2 3 3 1 5 10 8 4 8 10 4 14 14 17 17 16 13 11 9 8 7 7 7 8 10 9 9 10 11 12
4 3 4 4 3 5 5 5 5 4 6 5 4 4 3 3 4 5 7 3 2 3 7 3 2 3 2 0 5 3 2 3 6 3 1 5 3 6 5 5 3 1 2 2 3 3 5 6 4 4 3 5 2 2 1 3 2 5 6 3 3 7 4 5 3 5 5 2 12 14 16 16 15 15 12 11 8 9 7 6 8 9 8 8 9 10 11 12
6 6 4 4 4 3 2 1 1 1 6 1 2 5 3 3 5 3 4 8 1 4 3 4 3 3 2 1 2 2 5 6 3 7 2 2 3 4 1 4 3 5 3 2 3 3 5 2 1 5 6 5 4 4 7 4 3 7 5 6 4 4 3 4 3 1 2 6 11 17 17 15 10 12 10 8 8 8 7 7 7 5 6 8 9 10 10 11
5 5 5 6 3 4 2 1 1 1 4 2 2 4 3 2 5 3 6 6 8 4 4 5 3 2 2 4 5 6 5 5 7 7 3 4 4 4 5 4 5 2 1 1 3 1 5 2 3 6 7 7 6 6 5 5 6 8 6 8 8 8 8 4 6 4 5 8 13 17 14 12 11 12 10 8 8 8 9 8 6 5 5 4 7 9 10 10
4 1 3 6 1 1 3 3 1 6 5 5 6 4 3 4 2 5 3 3 4 6 5 3 2 2 4 2 5 6 6 5 5 4 5 3 2 2 1 2 4 5 2 2 3 5 4 5 4 6 8 8 8 5 5 4 7 9 11 10 9 8 5 4 2 3 2 7 12 11 8 10 13 11 12 11 8 6 5 5 7 7 4 5 5 7 9 9
Wind_Direction
340 338 339 336 335 333 331 331 332 329 328 327 328 327 326 326 326 327 327 325 324 321 323 319 320 317 311 310 302 301 292 277 278 239 233 247 68 82 99 114 151 183 201 204 194 182 186 197 203 189 215 206 214 238 240 253 245 254 283 319 340 279 101 109 103 108 135 134 137 147 134 152 136 149 135 166 144 126 130 123 126 124 117 124 125 131 134 137
338 341 338 336 334 332 329 331 329 327 324 326 327 326 325 325 325 325 325 324 322 320 319 320 313 314 310 304 305 297 277 278 267 259 245 98 131 132 129 162 163 186 200 203 188 187 186 191 201 189 213 213 196 246 166 228 220 256 138 265 5 41 50 41 45 104 111 131 149 134 101 187 136 140 153 128 128 132 133 131 129 123 123 120 130 134 138 143
337 338 337 335 333 331 329 330 327 326 324 323 325 326 324 324 324 324 322 322 320 319 317 316 313 309 305 305 299 283 277 283 262 253 249 143 137 149 147 173 174 187 201 197 186 193 198 187 193 198 209 225 190 229 201 210 246 240 282 2 266 47 77 75 55 66 134 138 146 129 137 160 151 148 144 141 152 147 152 145 130 129 127 134 135 140 143 148
335 336 335 335 331 329 329 329 326 323 323 321 323 323 322 321 322 321 320 319 317 316 315 312 310 305 303 300 295 290 275 278 269 108 79 117 134 150 173 172 177 193 210 216 190 205 207 200 197 211 212 234 192 236 218 188 177 325 45 257 73 308 23 62 93 95 107 139 122 134 145 144 151 139 135 196 149 157 148 150 141 138 138 138 143 144 148 149
334 334 333 331 331 328 326 328 324 322 321 321 321 321 320 320 320 319 319 317 316 312 313 310 305 305 300 300 284 275 283 273 96 75 86 115 135 150 171 174 179 196 209 211 200 214 211 207 200 218 239 226 219 194 233 196 191 227 169 282 275 271 63 352 84 65 98 112 127 159 147 176 144 181 120 189 137 163 167 150 140 143 142 148 146 147 150 152
333 332 332 330 328 327 326 326 324 321 320 320 319 319 318 318 318 317 316 316 312 310 306 306 302 298 302 301 279 262 263 287 77 76 130 125 131 142 155 170 193 206 209 215 203 203 210 208 204 213 224 248 209 222 190 212 210 260 156 204 248 19 97 332 71 65 138 137 134 137 133 158 189 119 124 137 124 157 181 139 137 144 146 147 145 148 151 155
332 332 330 328 327 326 324 325 323 320 318 317 319 317 317 316 316 316 314 312 308 306 304 300 300 299 300 296 260 259 246 290 95 118 123 146 125 141 151 175 191 219 221 211 203 201 206 205 210 209 229 240 233 222 215 184 196 210 236 231 219 184 338 4 55 164 99 94 110 98 160 169 168 135 161 131 177 171 141 129 138 141 143 147 150 153 151 155
331 330 329 327 327 325 324 323 323 319 317 317 317 316 314 315 314 313 311 307 304 299 299 295 293 295 300 272 255 230 231 205 103 125 135 134 150 146 160 178 189 206 225 217 198 204 198 209 204 214 234 231 191 222 131 226 205 221 235 208 237 252 139 241 29 99 93 130 136 142 164 153 148 120 124 228 136 131 126 130 138 144 146 150 152 155 152 156
332 330 328 328 325 324 324 322 321 320 316 316 315 314 313 313 312 310 307 303 297 294 290 289 284 288 288 284 267 277 172 84 111 125 142 159 155 159 171 173 191 207 216 210 205 205 205 209 216 223 215 226 242 229 172 233 199 223 263 84 271 271 279 322 212 166 142 128 131 157 145 153 128 160 128 151 123 129 131 137 142 147 148 153 157 154 153 161
330 329 328 326 325 324 322 321 320 318 316 315 313 312 313 310 310 307 304 299 293 285 280 276 278 275 258 255 262 253 98 113 108 130 153 150 152 162 180 179 190 208 207 206 202 212 213 199 225 207 278 294 270 227 218 218 11 308 231 263 269 267 273 179 274 126 162 129 157 175 135 156 119 75 111 133 125 133 138 139 144 148 153 153 158 155 156 165
329 328 326 325 324 323 322 320 319 316 316 315 313 313 310 309 307 305 301 297 288 275 266 260 256 249 248 239 268 279 347 150 124 137 142 150 155 167 182 181 192 207 212 198 214 215 209 248 213 275 262 253 224 235 229 223 255 233 264 261 246 246 233 254 246 114 174 128 187 69 164 106 93 86 164 162 139 143 142 142 147 152 152 155 155 155 158 164
331 327 325 324 324 322 320 319 317 315 314 315 313 311 310 308 306 300 298 295 283 261 251 246 231 239 259 271 250 319 204 116 145 141 151 155 171 175 178 184 192 208 206 197 215 209 226 238 247 230 206 349 246 235 224 257 253 248 239 247 227 227 233 200 220 163 120 73 84 315 138 121 153 133 255 138 148 156 147 148 150 154 153 157 154 155 162 160
328 326 324 323 322 320 319 318 316 314 314 314 312 310 309 307 301 297 294 292 259 242 231 226 219 235 271 256 222 94 215 142 141 152 153 181 155 180 163 178 197 219 221 228 205 210 231 245 254 244 252 267 275 242 14 220 223 245 250 262 234 205 229 166 256 147 102 138 164 143 168 139 106 6 220 190 151 170 153 152 155 155 155 157 158 155 164 159
326 323 323 322 316 320 320 317 316 314 314 313 312 309 309 303 298 294 290 257 277 213 209 209 224 239 252 280 93 118 118 179 133 166 182 160 179 147 184 168 194 217 218 242 223 220 236 250 256 257 266 241 214 29 216 231 234 236 230 229 243 214 205 164 199 151 121 158 121 196 244 94 66 287 249 213 173 171 162 158 161 156 158 160 160 159 166 162
319 320 320 319 320 320 318 315 315 312 310 313 309 311 306 300 297 296 276 202 221 189 193 194 225 247 225 218 107 101 343 139 174 175 174 180 164 158 177 169 185 201 196 272 244 206 217 237 256 240 235 226 278 285 229 225 197 226 228 207 224 245 148 182 168 173 110 145 153 249 62 116 160 203 209 219 159 197 166 169 162 160 159 164 161 161 171 161
315 316 314 318 320 320 316 319 315 313 311 311 310 308 301 295 298 321 199 250 170 176 188 205 209 242 291 248 109 121 190 192 176 179 173 197 173 183 151 179 164 193 181 196 287 195 222 225 229 222 237 203 236 238 212 218 209 206 234 215 221 216 176 188 171 153 135 152 145 304 68 134 160 187 174 198 197 186 188 168 165 159 163 164 164 166 168 164
318 315 315 315 320 319 319 317 313 310 309 309 310 298 288 284 285 251 232 161 169 197 211 249 210 202 248 73 159 189 180 201 158 177 174 203 203 140 175 161 176 166 195 154 220 214 193 226 216 241 242 239 204 233 223 215 206 202 203 228 213 208 200 192 137 167 146 161 143 130 143 159 129 193 229 203 212 227 169 165 169 162 162 167 169 167 171 165
318 317 316 315 317 320 318 314 312 309 312 309 300 295 291 290 306 271 155 221 181 202 225 253 279 249 241 211 198 192 185 142 173 160 184 175 227 145 179 188 160 171 178 175 180 211 174 212 200 225 210 229 215 214 227 210 207 202 194 217 205 209 208 193 192 161 160 179 143 164 146 151 162 195 224 207 198 212 166 156 171 162 167 166 174 172 168 170
319 320 316 314 314 314 315 314 310 314 313 309 289 272 259 261 263 244 242 173 196 180 213 188 195 201 356 174 194 181 176 137 174 161 163 185 176 177 181 175 177 164 182 194 159 212 172 224 196 229 214 207 216 214 219 227 207 213 199 216 216 212 201 219 181 144 202 185 155 170 172 143 191 216 214 215 193 149 180 161 144 171 158 179 174 172 171 170
319 316 317 316 313 312 315 312 310 311 319 307 238 199 202 212 188 196 208 206 229 243 355 68 205 347 182 120 147 98 94 153 166 192 156 173 182 173 184 179 173 196 179 204 153 209 171 215 201 214 218 206 216 219 229 242 284 272 228 210 207 218 206 192 165 151 201 217 155 201 143 153 184 199 182 235 143 162 161 153 192 129 188 171 176 173 171 172
315 318 317 316 315 312 309 312 311 305 306 280 278 252 259 343 288 133 168 213 225 243 255 234 225 245 360 137 116 153 168 175 197 161 180 155 194 182 168 197 177 201 195 196 167 177 199 222 217 212 224 212 215 220 233 247 188 249 238 207 199 221 217 170 165 153 218 211 184 172 151 188 163 162 187 216 219 169 164 164 161 167 180 176 175 170 175 169
319 317 319 317 315 313 313 312 313 312 287 263 258 251 309 46 14 351 299 263 197 227 228 242 249 257 174 272 44 206 186 170 197 170 156 193 158 215 147 215 191 210 177 194 170 176 206 222 222 212 224 231 219 215 228 248 230 229 248 222 216 208 220 197 118 212 186 232 187 187 191 162 158 196 145 157 182 213 148 232 126 150 167 217 187 161 176 170
320 318 315 316 317 315 319 314 318 316 271 214 221 240 9 1 349 352 297 286 278 165 221 212 211 216 205 200 208 219 215 184 187 171 157 211 171 230 156 216 198 214 179 195 192 183 203 219 228 211 216 230 213 215 219 202 230 221 232 217 215 206 221 163 204 202 208 231 192 187 216 178 151 162 140 164 202 155 146 159 168 229 180 192 152 166 185 174
317 315 316 316 317 322 315 325 302 257 229 237 262 13 27 343 327 326 286 261 271 161 225 194 215 196 206 195 171 203 218 181 192 169 158 207 200 199 214 217 206 221 195 192 206 201 215 201 215 220 204 210 211 197 210 213 214 219 224 227 215 205 225 253 161 189 211 223 294 127 236 174 158 152 165 186 189 162 149 166 174 187 148 70 327 2 198 177
316 317 317 316 317 317 322 316 258 226 208 224 244 62 22 319 327 322 298 261 238 158 106 150 244 213 143 38 152 214 217 180 204 165 165 212 198 184 225 206 238 213 207 186 211 223 219 219 194 216 175 203 207 198 214 217 227 213 224 242 229 211 223 205 137 209 194 212 194 225 199 221 148 180 159 164 172 158 147 157 156 155 154 117 64 219 226 166
318 314 318 311 315 322 309 282 208 309 220 238 72 82 289 323 359 306 282 258 203 128 167 184 178 162 66 184 166 221 238 209 120 152 172 208 211 220 176 225 225 203 206 189 210 226 226 158 272 169 189 199 213 222 198 223 228 224 197 219 245 242 223 197 184 227 230 221 186 207 248 191 188 104 84 86 147 131 181 145 160 163 157 117 95 172 206 188
318 317 315 315 311 319 267 16 25 239 237 152 163 344 310 296 48 278 264 226 225 136 166 100 191 126 235 157 191 178 201 156 159 117 192 171 223 189 262 197 192 281 219 198 195 205 238 158 183 196 195 208 209 219 193 210 235 226 172 185 211 269 259 203 201 206 240 214 162 196 220 186 158 112 98 75 53 55 48 337 204 150 164 170 167 183 184 189
318 317 313 309 304 257 309 313 276 247 10 41 304 302 304 350 282 258 260 244 118 187 132 160 348 111 239 165 195 197 12 122 189 165 216 156 256 164 247 209 209 209 216 192 210 155 216 159 189 193 212 210 215 213 177 204 231 246 78 197 208 207 204 228 237 227 251 241 177 190 216 196 191 126 123 92 80 81 132 128 334 63 177 177 169 162 181 181
318 315 313 309 300 268 265 259 300 323 31 349 4 272 252 196 259 264 270 255 83 203 26 142 148 200 185 174 205 215 165 183 244 144 173 167 226 283 198 238 221 213 181 223 216 157 191 186 179 219 206 211 208 207 191 188 232 112 5 17 227 223 222 224 223 226 232 234 222 211 186 213 152 162 124 146 141 162 155 97 127 195 180 199 176 154 174 188
317 315 314 311 288 211 212 229 251 343 330 329 294 291 253 255 240 227 204 253 160 153 223 86 199 176 185 179 192 193 206 187 12 144 163 200 182 232 284 328 222 217 188 218 256 179 184 181 208 215 206 212 207 211 190 207 230 133 148 202 205 192 210 213 235 233 232 230 221 229 208 174 149 307 158 199 105 78 87 116 85 161 147 150 203 178 174 206
315 313 310 301 262 340 302 242 188 54 344 307 272 257 264 233 243 260 228 65 218 94 181 172 164 168 184 183 175 183 208 141 156 179 162 195 171 222 190 205 290 235 182 219 214 9 141 143 213 201 39 348 247 197 203 173 234 216 192 208 168 195 200 203 215 216 229 221 214 222 220 154 166 164 111 92 110 71 32 72 54 35 46 138 169 198 177 187
315 310 297 249 302 319 273 355 6 313 304 287 273 248 233 224 210 237 191 116 250 138 201 163 147 185 181 188 184 182 179 174 169 188 175 192 175 200 184 221 185 190 205 189 191 165 196 193 203 196 175 247 208 294 177 169 247 199 215 218 191 173 193 183 203 211 215 224 200 213 221 214 144 124 113 95 79 89 68 40 41 40 66 86 137 167 184 174
315 308 292 245 266 247 249 311 316 299 271 247 260 248 238 258 220 219 133 228 115 178 128 224 161 186 184 183 167 184 149 195 160 199 196 188 199 190 176 246 186 227 222 180 185 169 183 174 164 164 189 224 193 210 158 201 217 212 219 202 212 177 191 197 200 213 215 228 231 205 208 219 119 119 109 100 69 62 64 75 47 54 64 74 80 130 176 134
308 308 258 203 214 244 310 297 266 270 247 238 249 242 247 250 183 321 335 47 72 110 142 198 161 194 184 198 164 177 178 142 193 157 216 163 243 164 181 229 263 196 232 190 201 180 173 168 195 168 198 180 218 226 239 276 188 214 221 216 225 206 193 198 200 196 211 205 213 209 210 135 152 109 118 111 93 71 62 64 76 60 67 68 77 94 116 105
309 283 245 246 219 244 243 253 243 225 248 239 237 256 246 128 43 53 69 83 153 171 176 170 189 152 187 179 160 188 195 161 221 139 225 172 205 190 184 197 190 290 291 265 179 209 185 207 133 113 40 162 203 221 245 253 242 198 212 238 220 223 199 234 191 208 192 206 192 209 194 124 115 136 114 113 104 83 78 68 53 46 62 73 81 90 106 117
296 230 215 238 254 22 296 179 206 228 239 248 276 276 37 17 45 345 48 311 266 210 144 200 181 195 163 151 179 190 321 228 170 203 198 209 27 188 35 19 185 301 292 313 204 204 162 121 138 149 177 189 200 171 226 253 242 168 211 214 229 231 256 232 233 208 213 212 195 120 102 101 123 143 118 115 106 102 83 69 61 60 52 49 78 89 94 108
238 224 213 350 41 37 45 213 199 220 241 272 245 204 23 98 356 340 91 313 335 303 177 197 176 201 169 176 188 179 176 230 171 217 170 118 135 45 182 225 269 276 293 311 288 230 250 117 156 165 179 175 228 223 291 226 261 261 202 205 212 11 280 280 241 201 207 206 184 160 153 151 170 136 143 123 116 85 74 67 58 51 51 62 54 63 78 64
302 297 320 49 38 13 201 215 226 240 256 275 32 21 348 70 38 24 2 294 182 232 260 223 122 302 191 184 181 178 159 215 157 218 157 197 104 100 248 229 167 308 307 272 308 140 247 138 155 179 178 154 194 222 204 248 268 283 310 356 253 189 229 234 290 219 203 202 182 145 150 167 188 130 160 138 116 90 78 67 62 55 55 52 57 57 61 84
273 269 211 53 30 358 297 235 248 263 289 234 133 167 77 63 44 27 25 335 289 333 259 240 218 209 267 182 165 183 166 211 163 211 167 178 184 66 61 320 151 326 281 279 264 252 221 264 136 165 199 152 197 192 210 195 218 230 274 233 243 267 212 213 219 256 225 208 205 148 167 133 66 125 109 118 89 88 82 75 62 60 56 55 50 46 43 50
251 244 120 49 37 283 295 258 268 256 211 173 91 70 7 67 38 35 34 330 71 308 1 85 272 179 245 154 176 173 182 215 196 153 224 99 64 84 97 305 358 291 321 281 285 339 230 268 191 149 160 139 203 187 224 200 195 205 234 221 197 240 269 236 213 230 222 225 209 159 161 121 106 102 125 118 104 96 99 86 76 59 58 57 53 48 44 41
272 282 91 2 37 304 274 265 261 67 100 95 56 59 36 24 356 52 26 355 317 331 341 330 236 214 91 136 193 153 203 192 167 170 155 136 93 154 70 9 307 326 301 249 258 194 246 196 215 146 171 211 127 62 29 359 8 289 206 221 216 198 224 207 232 224 240 230 220 201 143 124 121 154 140 126 120 109 89 97 81 71 64 56 55 55 49 44
272 260 71 21 318 262 268 256 85 327 20 53 52 12 69 305 333 19 9 21 357 33 5 310 358 30 172 219 86 182 209 180 179 153 133 145 48 23 73 340 316 315 289 219 202 83 323 302 246 173 204 166 85 67 10 342 321 318 311 262 238 211 212 215 232 207 229 259 59 53 122 107 132 129 134 115 107 94 96 89 93 81 66 63 58 57 55 48
300 27 48 348 320 267 269 93 316 78 48 79 176 101 1 61 11 14 7 336 85 325 122 7 24 285 19 354 190 190 186 73 321 157 97 88 61 35 47 344 346 289 289 150 213 114 292 247 219 57 69 97 126 67 23 341 307 270 253 276 273 226 238 228 225 266 270 228 217 156 109 126 128 125 121 124 121 120 103 89 80 73 79 71 60 54 50 51
36 346 114 93 274 314 283 348 111 74 84 119 43 83 35 35 357 44 31 36 3 51 27 56 110 360 86 320 216 150 161 176 102 129 139 81 93 25 36 19 329 23 342 28 346 47 251 186 279 174 215 185 169 189 203 194 226 242 228 204 292 298 295 294 322 305 241 251 241 187 168 160 155 146 144 144 137 115 100 86 76 85 78 77 73 65 60 56
306 165 60 109 211 287 323 39 73 118 109 80 64 103 129 97 27 11 12 40 5 15 247 62 15 53 70 348 75 50 156 307 136 18 56 89 93 81 60 21 10 47 24 11 342 324 285 288 225 227 199 197 188 192 194 181 208 214 219 68 243 268 275 274 249 221 265 259 319 275 114 126 147 151 146 132 121 109 107 107 105 85 63 61 73 76 67 56
290 273 132 114 332 117 91 8 29 66 134 162 152 47 3 111 113 54 325 86 355 50 18 48 20 304 128 207 156 199 150 188 217 148 185 132 127 93 54 61 37 42 17 335 326 292 295 308 322 23 359 11 30 24 26 294 164 209 162 244 283 234 268 268 269 259 234 222 263 89 131 134 145 145 143 143 141 131 125 102 86 83 91 87 70 67 70 64
344 356 352 46 141 80 79 356 97 317 59 340 9 325 63 344 72 124 337 24 32 4 58 3 4 259 136 250 131 126 19 137 100 167 167 137 99 106 90 64 86 44 334 297 345 306 262 247 158 249 351 13 13 8 20 339 200 97 122 155 231 248 264 244 224 240 333 282 146 144 134 142 143 143 139 132 121 118 117 115 111 97 78 74 81 84 79 72
287 63 337 25 318 24 15 89 349 74 66 299 76 264 20 55 25 56 153 34 311 320 300 132 351 3 21 5 134 137 115 89 182 117 113 103 154 151 160 157 99 61 288 309 320 315 302 248 120 269 188 35 347 16 7 337 356 41 312 324 224 218 237 236 251 334 295 259 177 155 146 136 144 136 142 138 139 129 100 98 88 98 111 91 63 61 66 64
25 74 56 286 283 58 28 45 356 62 70 18 92 339 76 23 86 20 352 77 351 89 320 130 59 50 34 53 303 98 62 190 140 95 208 165 207 166 171 157 152 212 234 14 354 358 290 265 64 252 286 249 250 264 102 290 256 251 240 217 257 252 216 253 235 261 269 238 125 145 134 133 131 132 136 135 122 123 122 123 131 115 86 73 63 58 54 55
34 337 91 110 76 81 95 162 105 218 90 238 252 52 8 5 55 50 70 337 85 69 289 68 91 89 88 175 242 141 102 360 15 171 82 314 139 267 317 21 70 134 289 69 316 106 271 78 65 284 266 214 221 235 232 258 283 253 224 234 236 245 249 243 277 81 153 132 142 140 133 124 115 123 131 132 136 137 147 125 100 79 80 89 73 55 48 46
3 357 343 314 79 37 343 53 228 171 131 94 82 82 13 47 56 27 56 2 15 71 11 66 50 103 52 74 70 81 48 46 30 50 81 357 348 64 330 101 319 8 28 300 228 110 260 252 144 251 252 222 178 224 204 230 243 253 228 229 221 215 219 181 222 175 219 176 147 137 135 135 135 134 139 152 152 160 137 137 118 90 90 75 86 75 52 38
312 125 270 292 54 210 254 128 160 243 77 49 26 79 324 77 73 285 148 62 39 23 20 355 356 321 103 95 73 44 18 18 29 10 10 2 330 354 205 0 316 334 11 301 59 264 244 251 219 214 234 257 160 204 197 205 228 229 228 216 212 214 245 213 107 64 353 159 158 165 148 130 142 148 154 154 150 123 109 93 112 96 61 69 42 52 61 46